EW9060 Weather Reports


time (UTC)temp
F
wind
direction
speed
knots
gust
knots
rain 1hr
in
rain 24hr
in
rain mn
in
humidity
%
barometer
mb
20260504193054 59 104 1.7 6.1 0.01 0.01 0.01 77 1016.3
20260504191554 59 102 2.6 7.0 0.01 0.01 0.01 77 1016.4
20260504190154 59 205 0.9 7.0 0.01 0.01 0.01 80 1016.3
20260504184552 59 119 0.9 7.0 0.01 0.01 0.01 81 1016.4
20260504183051 59 161 1.7 7.0 0.00 0.00 0.00 79 1016.4
20260504181551 59 144 2.6 7.0 0.00 0.00 0.00 74 1016.4
20260504180049 60 147 1.7 7.0 0.00 0.00 0.00 72 1016.2
20260504174546 60 196 0.9 6.1 0.00 0.00 0.00 72 1016.1
20260504173041 60 151 2.6 8.7 0.00 0.00 0.00 71 1016.0
20260504171539 59 159 4.3 7.8 0.00 0.00 0.00 73 1016.0
20260504081554 55 147 0.9 3.5 0.00 0.00 0.00 77 1014.9
20260504044531 60 159 2.6 7.0 0.00 0.00 0.00 66 1013.8
20260504043026 60 238 1.7 7.8 0.00 0.00 0.00 66 1013.6
20260504041523 61 164 1.7 7.0 0.00 0.00 0.00 65 1013.5
20260504040022 61 109 2.6 7.0 0.00 0.00 0.00 65 1013.3
20260504034521 62 154 0.9 7.8 0.00 0.00 0.00 64 1013.1
20260504033020 62 251 2.6 7.0 0.00 0.00 0.00 64 1012.8
20260504031520 63 351 1.7 8.7 0.00 0.00 0.00 64 1012.7
20260504030020 64 221 2.6 8.7 0.00 0.00 0.00 63 1012.6
20260504024519 64 209 2.6 9.6 0.00 0.00 0.00 61 1012.4
20260504023018 65 228 4.3 10.4 0.00 0.00 0.00 60 1012.3
20260504021517 66 180 4.3 10.4 0.00 0.00 0.00 58 1012.2
20260504020017 67 19 4.3 9.6 0.00 0.00 0.00 56 1012.2
20260504014524 68 289 4.3 10.4 0.00 0.00 0.00 53 1012.1
20260504013016 69 173 2.6 10.4 0.00 0.00 0.00 53 1012.0
20260504011514 69 281 1.7 8.7 0.00 0.00 0.00 52 1012.0
20260504010117 69 17 2.6 9.6 0.00 0.00 0.00 52 1011.8
20260504004514 70 178 3.5 10.4 0.00 0.00 0.00 51 1011.9
20260504003013 71 178 3.5 10.4 0.00 0.00 0.00 50 1011.8
20260504001511 70 115 2.6 7.0 0.00 0.00 0.00 50 1012.0
20260504000022 69 236 5.2 9.6 0.00 0.00 0.00 51 1012.1
20260503234511 69 155 4.3 10.4 0.00 0.00 0.00 52 1012.2
20260503233008 69 237 1.7 9.6 0.00 0.00 0.00 53 1012.3
20260503231506 69 244 3.5 8.7 0.00 0.00 0.00 53 1012.4
20260503230007 69 311 2.6 9.6 0.00 0.00 0.00 53 1012.3
20260503224506 69 203 4.3 8.7 0.00 0.00 0.00 52 1012.1
20260503223006 69 184 3.5 10.4 0.00 0.00 0.00 52 1012.1
20260503221504 69 188 5.2 10.4 0.00 0.00 0.00 53 1012.1
20260503220002 68 193 2.6 12.2 0.00 0.00 0.00 55 1012.2
20260503214506 68 163 3.5 12.2 0.00 0.00 0.00 55 1012.3
20260503213002 68 196 4.3 9.6 0.00 0.00 0.00 54 1012.4
20260503211502 68 167 4.3 10.4 0.00 0.00 0.00 54 1012.6
20260503204609 69 185 4.3 13.9 0.00 0.00 0.00 52 1012.6
20260503203106 68 170 2.6 13.0 0.00 0.00 0.00 54 1012.8
20260503201554 67 166 4.3 10.4 0.00 0.00 0.00 54 1012.7
20260503200053 66 115 3.5 11.3 0.00 0.00 0.00 56 1012.8
20260503194607 66 172 5.2 12.2 0.00 0.00 0.00 55 1012.8